Regional Weather Roundup
Issued by NWS Sterling, VA

Home | Current Version | Previous Version | Text Only | Print | Product List | Glossary Off
Versions: 1 2 3 4 5 6 7 8 9 10 11 12 13 14 15 16 17 18 19 20 21 22 23 24 25 26 27 28 29 30 31 32 33 34 35 36 37 38 39 40 41 42 43 44 45 46 47 48 49 50

000
ASUS41 KLWX 280210
RWRLWX

REGIONAL WEATHER ROUNDUP
NATIONAL WEATHER SERVICE BALTIMORE MD/WASHINGTON DC
1000 PM EDT FRI MAR 27 2015

Note: "FAIR" indicates few or no clouds below 12,000 feet
with no significant weather and/or obstructions to visibility.
 TC=TEMPERATURE CELSIUS

 * =Non NWS site. Station does not report precipitation (e.g. rain,
    snow, etc.), thunder, or fog.

DCZ001-MDZ009-015-VAZ040>042-051-053>054-280300-
WASHINGTON METRO

CITY           SKY/WX    TMP DP  RH WIND       PRES   REMARKS
WASHINGTON NAT CLOUDY    47  26  44 NW16G24   29.84R
DULLES         CLOUDY    42  23  46 N10       29.84R
ANDREWS AFB    CLOUDY    44  27  51 N13G18    29.81R
FT BELVOIR     CLOUDY    46  25  44 NW10      29.82R
QUANTICO       MOCLDY    46  26  45 N15G28    29.84R
COLLEGE PARK*  CLOUDY    45  27  49 N8G16     29.83R
LEESBURG*      CLOUDY    43  28  56 N14G20    29.85S
MANASSAS*      PTCLDY    43  28  56 N9        29.84R
GAITHERSBURG*  CLOUDY    41  23  48 NW7       29.87R

$$

MDZ006>007-011-014-280300-
BALTIMORE METRO

CITY           SKY/WX    TMP DP  RH WIND       PRES   REMARKS
BWI AIRPORT    CLOUDY    44  25  47 NW7       29.82R
MARTIN STATE   MOCLDY    45  28  53 NW8       29.83R
ANNAPOLIS      MOCLDY    42  37  82 CALM      29.82R

$$

MDZ012-015-019>023-280300-
MARYLAND EASTERN SHORE

CITY           SKY/WX    TMP DP  RH WIND       PRES   REMARKS
OCEAN CITY     CLOUDY    38  37  97 VRB3      29.79S
SALISBURY      CLOUDY    39  37  92 NW3       29.79F
BAY BRIDGE AP*   N/A     41  37  87 CALM      29.82R
CAMBRIDGE*     CLOUDY    41  37  87 CALM        N/A
EASTON*        CLOUDY    42  42 100 CALM      29.84

$$

MDZ017>025-280300-
SOUTHERN MARYLAND

CITY           SKY/WX    TMP DP  RH WIND       PRES   REMARKS
PATUXENT RIVER CLOUDY    40  37  89 W3        29.81S
ST INIGOES     CLOUDY    40  36  86 W3        29.80S
LEONARDTOWN*   CLOUDY    37  36  93 W3        29.82S

$$

MDZ003>005-280300-
NORTH CENTRAL MARYLAND

CITY           SKY/WX    TMP DP  RH WIND       PRES   REMARKS
FREDERICK*     CLOUDY    43  21  42 NW14G20   29.87R
HAGERSTOWN APT CLOUDY    38  25  59 NW10      29.86R
WESTMINSTER*   CLOUDY    41  23  48 NW6       29.82R

$$

MDZ501>502-280300-
WESTERN MARYLAND

CITY           SKY/WX    TMP DP  RH WIND       PRES   REMARKS
OAKLAND*       CLOUDY    21 N/A N/A NW7       29.81R FOG
CUMBERLAND*    MOCLDY    34  23  64 NW14G20   29.94R WCI  24

$$

VAZ025>031-280300-
SHENANDOAH VALLEY

CITY           SKY/WX    TMP DP  RH WIND       PRES   REMARKS
WINCHESTER*    CLOUDY    41  19  42 NW10      29.85S
FRONT ROYAL*   CLOUDY    39  27  60 N7        29.84R
LURAY*         CLOUDY    41  30  65 CALM      29.84R
NEW MARKET*    CLOUDY    38  25  58 N5        29.85R
STAUNTON*      CLOUDY    40  24  52 N6        29.85S
WAYNESBORO*    CLOUDY    38  25  60 N7        29.83R

$$

WVZ021-048>050-054>055-280300-
EASTERN WEST VIRGINIA PANHANDLE

CITY           SKY/WX    TMP DP  RH WIND       PRES   REMARKS
MARTINSBURG    CLOUDY    41  22  46 NW13      29.86R
PETERSBURG*    CLOUDY    37  24  59 N9        29.89R

$$

VAZ036>039-050-280300-
CENTRAL FOOTHILLS

CITY           SKY/WX    TMP DP  RH WIND       PRES   REMARKS
CHARLOTTESVILL CLOUDY    43  26  51 N5        29.81S
CULPEPER*      CLOUDY    45  27  49 N10       29.84S
ORANGE*        CLOUDY    45  30  57 N10       29.84S
GORDONSVILLE*  CLOUDY    44  28  54 N7        29.81S
WARRENTON*     FAIR      44  32  63 N12G17    29.83S

$$

VAZ055>057-280300-
NORTH AND CENTRAL PIEDMONT

CITY           SKY/WX    TMP DP  RH WIND       PRES   REMARKS
FREDERICKSBRG* CLOUDY    46  30  53 NW10G16   29.83R
STAFFORD*      CLOUDY    42  27  54 N10       29.87R

$$

NCZ024-NYZ072-PAZ021-071-VAZ022-071-280300-
OTHER REGIONAL OBSERVATIONS

CITY           SKY/WX    TMP DP  RH WIND       PRES   REMARKS
NEW YORK CITY  CLOUDY    43  24  47 VRB5      29.80S
PHILADELPHIA   CLOUDY    45  24  43 N9G20     29.81R
PITTSBURGH     FLURRIES  24  19  81 N17       29.98R WCI  11
ROANOKE        PTCLDY    40  22  48 N10       29.85R
RICHMOND       CLOUDY    42  37  82 W3        29.80F
RALEIGH        MOCLDY    40  37  89 CALM      29.82R

$$

ANZ530>537-280300-
MARINE OBSERVATIONS

STATION/POSITION TIME  TEMP    WIND        PRES
                       AIR SEA DIR/SP/G
                 (UTC) (F)     (DEG/KT/KT) (MB)
THOMAS PT LIGHT  0200                        N/A
BALT KEY BRIDGE  0100   46     320/ 14/ 16 1009.0S
COVE POINT       0100   40     230/  3/  4 1009.2R
LEWISETTA        0100   40 47              1008.9R
SOLOMONS ISLAND  0100      43                N/A
PINEY POINT      0100          280/  2/  3   N/A

$$



USA.gov is the U.S. government's official web portal to all federal, state and local government web resources and services.